[Iaude] MPEC G27: 2024 GE [a=1.84,e=0.42,i=10.1,H=25.7]

mpec at cfa.harvard.edu mpec at cfa.harvard.edu
Wed Apr 3 16:12:56 EDT 2024


M.P.E.C. 2024-G27                                 Issued 2024 April 3, 20:11 UT

     The Minor Planet Electronic Circulars contain information on unusual
         minor planets, routine data on comets and natural satellites,
         and occasional editorial announcements.  They are published
    on behalf of Division F of the International Astronomical Union by the
          Minor Planet Center, Smithsonian Astrophysical Observatory,
                          Cambridge, MA 02138, U.S.A.
			  
             Prepared using the Tamkin Foundation Computer Network

                              MPC at CFA.HARVARD.EDU
            URL https://www.minorplanetcenter.net/    ISSN 1523-6714

                                    2024 GE                                     


Observations:
     K24G00E* C2024 04 01.37171113 35 05.858-00 03 06.73         20.98wXEG027F51
     K24G00E  C2024 04 01.38289613 35 07.624-00 04 54.11         21.44wXEG027F51
     K24G00E  C2024 04 01.39407413 35 09.372-00 06 41.27         21.31wXEG027F51
     K24G00E  C2024 04 01.40524013 35 11.104-00 08 28.41         21.28wXEG027F51
     K24G00E  C2024 04 01.52645113 35 29.572-00 27 58.03         20.86GVEG027F52
     K24G00E  C2024 04 01.52710213 35 29.663-00 28 03.60         20.48GVEG027F52
     K24G00E  C2024 04 01.52775213 35 29.767-00 28 10.03         20.79GVEG027F52
     K24G00E |C2024 04 02.30136013 38 02.550-02 34 17.20         20.9 GVEG027807
     K24G00E |C2024 04 02.30686013 38 03.450-02 35 13.00         21.1 GVEG027807
     K24G00E |C2024 04 02.31244013 38 04.370-02 36 09.20         20.9 GVEG027807
     K24G00E pC2024 04 02.96822113 40 22.66 -04 31 07.3          20.6 GVEG027L01
     K24G00E pC2024 04 02.97019813 40 23.00 -04 31 27.3          20.7 GVEG027L01
     K24G00E pC2024 04 02.97217513 40 23.37 -04 31 47.9          20.8 GVEG027L01
     K24G00E pC2024 04 02.97418513 40 23.74 -04 32 08.7          21.0 GVEG027L01
     K24G00E pC2024 04 02.97660113 40 24.17 -04 32 35.2          20.5 GVEG027L01

Observer details:
807 Cerro Tololo Observatory, La Serena.  Observers T. Linder, R. Holmes.
    0.61-m f/6.8 Ritchey-Chretien + CCD.
F51 Pan-STARRS 1, Haleakala.  Observers J. Herman, T. Lowe, P. Minguez, A.
    Schultz, I. Smith.  Measurers K. Chambers, T. de Boer, J. Fairlamb, H.
    Gao, M. Huber, C.-C. Lin, E. Magnier, Y. Ramanjooloo, R. Wainscoat, R.
    Weryk.  1.8-m Ritchey-Chretien + CCD.
F52 Pan-STARRS 2, Haleakala.  Observers J. Herman, T. Lowe, P. Minguez, A.
    Schultz, I. Smith.  Measurers K. Chambers, T. de Boer, J. Fairlamb, H.
    Gao, M. Huber, C.-C. Lin, E. Magnier, Y. Ramanjooloo, R. Wainscoat, R.
    Weryk.  1.8-m Ritchey-Chretien + CCD.
L01 Visnjan Observatory, Tican.  Observer K. Korlevic.  1.0-m f/2.9 reflector
    + CCD.

Orbital elements:
2024 GE                                                  Earth MOID = 0.0667 AU
Epoch 2024 Mar. 31.0 TT = JDT 2460400.5                 Bell                    
M 352.89329              (2000.0)            P               Q                  
n   0.39352284     Peri.  193.76243     -0.86525788     +0.49887379             
a   1.8442626      Node    16.44395     -0.44181089     -0.71210961             
e   0.4233384      Incl.   10.07800     -0.23692180     -0.49398871             
P   2.50           H   25.70          G   0.15           U   8                  
Residuals in seconds of arc
240401 F51  0.0   0.1-    240401 F52  0.1-  0.3+    240402 L01  0.5-  0.6-
240401 F51  0.0   0.1-    240401 F52  0.1-  0.2+    240402 L01  0.6-  0.1+
240401 F51  0.0   0.0     240402 807  0.2+  0.1+    240402 L01  0.3-  0.3+
240401 F51  0.0   0.2+    240402 807  0.0   0.1-    240402 L01  0.0   0.6+
240401 F52  0.0   0.4-    240402 807  0.0   0.1+    240402 L01  0.1+  0.5-

Ephemeris:
2024 GE                  a,e,i = 1.84, 0.42, 10                  q = 1.0635
Date    TT    R. A. (2000) Decl.     Delta      r    Elong.  Phase     V
2024 03 04    12 37 49.2 +30 46 41   0.2034  1.1666   146.5    28.0    23.8
...
2024 03 19    13 02 11.5 +22 46 33   0.1291  1.1116   152.4    24.5    22.6
...
2024 03 27    13 19 41.3 +11 57 48   0.09751 1.0899   159.9    18.3    21.8
...
2024 04 02    13 37 04.7 -01 44 37   0.08006 1.0776   166.8    12.2    21.1
2024 04 03    13 40 28.1 -04 35 06   0.07790 1.0759   167.2    11.8    21.0
2024 04 04    13 44 01.5 -07 34 38   0.07600 1.0744   167.2    11.9    21.0
...
2024 04 10    14 09 33.0 -27 38 06   0.07076 1.0671   156.4    22.0    21.2
...
2024 04 18    14 58 36.5 -51 53 36   0.08027 1.0635   136.2    40.8    22.0
...
2024 05 03    17 16 29.2 -71 18 53   0.1252  1.0757   119.7    54.5    23.3

M. P. C. Staff               (C) Copyright 2024 MPC           M.P.E.C. 2024-G27





More information about the Iaude mailing list